Starlink 30769

operational
NORAD ID: 58138 Int'l Des: 2023-162 Owner: SPXS Country: US Constellation: starlink
LEOCIRCULAR

Über Starlink 30769

Beschreibung wird geladen...

Live-Position

3D-Globus wird geladen...

Nächste Überflüge

Höhenverlauf

Altitude vs Time

uPlot chart will show altitude changes over time

Zweizeiliger Elementsatz

1 58138U 23162W 25351.90746920 -.00001564 00000-0 -10077-3 0 9998
2 58138 43.0016 217.8189 0001287 263.9267 96.1429 15.02526880119997
Epoch: 17. Dez. 2025 • Age: 9 hours

Aktueller Status

Höhe 558.3 km
Geschwindigkeit 7.58 km/s
Subsatellitenpunkt 10.43°N, 159.89°W
Startdatum 22. Okt. 2023
Alter 2.1 years
Typ internet

Technische Details

Klassifizierung Payload
Masse 730.00 kg
Trockenmasse 700.00 kg
Gesamtmasse 730.00 kg
Länge 0.30 m
Durchmesser 4.10 m
Spannweite 29.00 m
Form Box + pan
Hersteller SPXS
Bus-Typ Starlink V2M
Phasenstatus In Orbit
Besitzer/Staat SPXS/US

Große Konstellationen

Loading constellations...